This is the latest recevied weather packets stored in our database for station/object N0TKN. If no packets are shown the sender has not sent any weather packets the latest 10 day(s).
| Time | Temp. | Humidity | Pressure | Rain* | Wind** | Luminosity | Snow |
|---|---|---|---|---|---|---|---|
| 1777649116 | 14.44° C | 42% | 1017.1 hPa | 0 mm | - | 729 W/m² | - |
| 1777648517 | 13.89° C | 42% | 1017.3 hPa | 0 mm | - | 703 W/m² | - |
| 1777647917 | 13.89° C | 47% | 1017.2 hPa | 0 mm | - | 674 W/m² | - |
| 1777647317 | 13.89° C | 43% | 1017.3 hPa | 0 mm | - | 646 W/m² | - |
| 1777646717 | 13.33° C | 52% | 1017.2 hPa | 0 mm | - | 615 W/m² | - |
| 1777646117 | 13.33° C | 56% | 1017.1 hPa | 0 mm | - | 583 W/m² | - |
| 1777645518 | 12.78° C | 62% | 1017.1 hPa | 0 mm | - | 552 W/m² | - |
| 1777644918 | 12.22° C | 65% | 1017 hPa | 0 mm | - | 519 W/m² | - |
| 1777644318 | 11.67° C | 64% | 1017.2 hPa | 0 mm | - | 486 W/m² | - |
| 1777643718 | 11.11° C | 69% | 1017.6 hPa | 0 mm | - | 455 W/m² | - |
| 1777643118 | 10° C | 77% | 1017.6 hPa | 0 mm | - | 422 W/m² | - |
| 1777642515 | 10.56° C | 79% | 1017.4 hPa | 0 mm | - | 387 W/m² | - |
| 1777641919 | 10.56° C | 74% | 1017.6 hPa | 0 mm | - | 350 W/m² | - |
| 1777641316 | 10° C | 78% | 1017.8 hPa | 0 mm | - | 312 W/m² | - |
| 1777640716 | 9.44° C | 82% | 1017.8 hPa | 0 mm | - | 276 W/m² | - |
| 1777640116 | 8.89° C | 85% | 1017.7 hPa | 0 mm | - | 242 W/m² | - |
| 1777639516 | 8.89° C | 84% | 1017.8 hPa | 0 mm | - | 208 W/m² | - |
| 1777638916 | 7.78° C | 84% | 1018 hPa | 0 mm | - | 175 W/m² | - |
| 1777638316 | 6.67° C | 88% | 1018.2 hPa | 0 mm | - | 143 W/m² | - |
| 1777637717 | 6.11° C | 91% | 1018.2 hPa | 0 mm | - | 114 W/m² | - |
| 1777637116 | 5.56° C | 93% | 1018.6 hPa | 0 mm | - | 79 W/m² | - |
| 1777636516 | 5° C | 93% | 1018.7 hPa | 0 mm | - | 39 W/m² | - |
| 1777635917 | 5° C | 93% | 1018.6 hPa | 0 mm | - | 28 W/m² | - |
| 1777635318 | 5° C | 93% | 1018.6 hPa | 0 mm | - | 19 W/m² | - |
| 1777634717 | 5° C | 92% | 1018.6 hPa | 0 mm | - | 11 W/m² | - |
* Rain latest hour (hover to see other rain measurements)
** Current wind speed in m/s (hover to see current wind gust speed)